Regional Weather Roundup
Issued by NWS Kansas City/Pleasant Hill, MO

Home | Current Version | Previous Version | Graphics & Text | Print | Product List | Glossary Off
Versions: 1 2 3 4 5 6 7 8 9 10 11 12 13 14 15 16 17 18 19 20 21 22 23 24 25 26 27 28 29 30 31 32 33 34 35 36 37 38 39 40 41 42 43 44 45 46 47 48 49 50

000
ASUS43 KEAX 301010
RWREAX

WEATHER ROUNDUP FOR EASTERN KANSAS AND NORTHWEST MISSOURI
NATIONAL WEATHER SERVICE KANSAS CITY/PLEASANT HILL MO
500 AM CDT TUE SEP 30 2014

KSZ040-057-103>105-MOZ028-029-037-043-301100-
...KANSAS CITY METROPOLITAN AREA...

CITY           SKY/WX    TMP DP  RH WIND       PRES   REMARKS
K.C. INTL      PTCLDY    63  58  83 SE8       29.92F
K.C. DOWNTOWN  CLEAR     64  60  87 CALM      29.92F
LEES SUMMIT    CLEAR     66  57  72 SE5       29.94F
OLATHE - IXD   CLEAR     63  58  83 SE8       29.93F
OLATHE - OJC   CLEAR     63  58  83 SE5       29.93F
LAWRENCE       CLEAR     59  56  89 CALM      29.92F

$$

MOZ001>008-011>017-020>025-030>033-038>040-044>046-053-054-301100-
...NORTHERN AND CENTRAL MISSOURI...

CITY           SKY/WX    TMP DP  RH WIND       PRES   REMARKS
ST. JOSEPH     PTCLDY    58  56  93 CALM      29.92F
MOSBY          MOSUNNY   55  55 100 CALM      29.93F FOG
WHITEMAN AFB   PTCLDY    58  56  92 SE2       29.94F
CLINTON        PTCLDY    57  57 100 CALM      29.95S FOG
SEDALIA        PTCLDY    61  56  83 S3        29.95F
WARSAW         NOT AVBL
MARSHALL       CLEAR     64  61  88 CALM      29.95F
CHILLICOTHE      N/A     58  55  90 CALM      29.95F
MOBERLY        CLEAR     57  52  82 S3        29.96F
KIRKSVILLE     CLEAR     57  55  93 NE8       29.97F FOG

$$

MOZ041-047>049-056>058-063>065-088>090-097-301100-
...EASTERN AND SOUTHERN MISSOURI...

CITY           SKY/WX    TMP DP  RH WIND       PRES   REMARKS
ST. LOUIS INTL CLEAR     64  58  80 CALM      29.96S
SPIRIT OF STL  CLEAR     56  55  97 CALM      29.95S FOG
COLUMBIA       CLEAR     63  56  78 S5        29.96F
JEFFERSON CITY PTCLDY    56  55  97 SE3       29.95F FOG
MEXICO         CLEAR    N/A N/A N/A SW3       29.95F
HANNIBAL       CLEAR     61  57  88 CALM      29.96S
ROLLA          CLEAR     60  55  83 S7        29.96F
LEBANON        CLEAR     61  55  82 CALM      29.97F
OSAGE BEACH    PTCLDY    55  54  94 CALM      29.96S
SPRINGFIELD    CLEAR     60  56  86 S5        29.96F
BRANSON        MOCLDY    59  57  94 CALM      29.99S
NEVADA         CLEAR     59  57  94 CALM      29.95F
JOPLIN         CLEAR     61  58  90 SE3       29.95F
WEST PLAINS    CLEAR     57  54  89 CALM      30.00R

$$

IAZ060-094-KSZ022-034>040-054-083-096-NEZ052-066-093-301100-
...KANSAS...SOUTHEAST NEBRASKA AND IOWA...

CITY           SKY/WX    TMP DP  RH WIND       PRES   REMARKS
TOPEKA         CLEAR     63  60  90 E3        29.91F
MANHATTAN      CLOUDY    68  59  73 CALM      29.89S
EMPORIA        PTCLDY    61  58  90 S8        29.92S
CHANUTE        CLEAR     61  59  93 SE7       29.93F
WICHITA        MOCLDY    64  57  78 S8        29.90S
OMAHA          MOCLDY    64  58  80 SE9       29.89F
LINCOLN        CLOUDY    66  58  75 S13       29.87S
FALLS CITY     PTCLDY    60  58  92 SE6       29.89F
LAMONI         CLEAR     60  59  96 E6        29.95F FOG
DES MOINES     CLOUDY    58  54  86 E6        29.97F

$$




USA.gov is the U.S. government's official web portal to all federal, state and local government web resources and services.